Location: Haliburton Scout Reserve
(45.0900°N, 78.3200°W)
Time: 18:35:32
(UTC-04:00)

Courier 1B Rocket - Pass Details

Date: 10 February 2023
Orbit: 920 x 1202 km, 28.2° (Epoch: 22 March)

Event Time Altitude Azimuth Distance (km) Brightness Sun altitude
Rises 16:19:09 0° 243° (WSW) 3,699 10.2 10.9°
Reaches altitude 10° 16:22:56 10° 223° (SW) 2,698 9.4 10.4°
Maximum altitude 16:26:43 16° 187° (S) 2,234 7.6 9.8°
Drops below altitude 10° 16:30:26 10° 150° (SSE) 2,624 7.3 9.2°
Sets 16:34:02 0° 130° (SE) 3,548 7.7 8.7°
